Weather History for Plymouth, NH

Change the Weather History Date:

Friday, April 12, 2013

  Actual Average (KLCI) Record (KLCI)
Temperature  
Mean Temperature 34 °F -  
Max Temperature 37 °F 52 °F 74 °F (1987)
Min Temperature 30 °F 30 °F 21 °F (1989)
Degree Days  
Heating Degree Days 32    
Moisture  
Dew Point 27 °F    
Average Humidity 80    
Maximum Humidity 95    
Minimum Humidity 42    
Precipitation  
Precipitation 0.26 in - - ()
Sea Level Pressure  
Sea Level Pressure 30.06 in    
Wind  
Wind Speed 4 mph (ESE)    
Max Wind Speed 14 mph    
Max Gust Speed 17 mph    
Visibility 7 miles    
Events Rain , Snow    
Averages and records for this station are not official NWS values.
T = Trace of Precipitation, MM = Missing Value Source: NWS Daily Summary

Daily Weather History Graph

Daily Weather History Graph

Search for Another Location

Airport:

Trip Planner

Search our weather history database for the weather conditions in past years. The results will help you decide how hot, cold, wet, or windy it might be!

Date:

Astronomy

Apr. 12, 2013 Rise Set
Actual Time 6:08 AM EDT 7:27 PM EDT
Civil Twilight 5:39 AM EDT 7:57 PM EDT
Nautical Twilight 5:03 AM EDT 8:33 PM EDT
Astronomical Twilight 4:25 AM EDT 9:11 PM EDT
Moon 7:12 AM EDT (4/12) 10:00 PM EDT (4/12)
Length of Visible Light 14h 18m
Length of Day
13h 18m
Waxing Crescent, 5% of the Moon is Illuminated
Apr 12
Waxing Crescent
Apr 18
First Quarter
Apr 25
Full
May 2
Last Quarter
May 9
New

Hourly Weather History & Observations

Time (EDT) Temp. Windchill Dew Point Humidity Pressure Visibility Wind Dir Wind Speed Gust Speed Precip Events Conditions
12:15 AM 37.9 °F - 18.9 °F 46% 30.16 in 10.0 mi Calm Calm - N/A   Unknown
12:35 AM 37.4 °F - 23.0 °F 56% 30.16 in 10.0 mi Calm Calm - N/A   Unknown
1:15 AM 37.4 °F - 20.5 °F 51% 30.15 in 10.0 mi Calm Calm - N/A   Unknown
1:35 AM 36.5 °F - 25.3 °F 64% 30.16 in 10.0 mi Calm Calm - N/A   Unknown
1:55 AM 36.0 °F - 26.6 °F 69% 30.16 in 10.0 mi Calm Calm - N/A   Unknown
2:15 AM 36.1 °F - 25.0 °F 64% 30.14 in 10.0 mi Calm Calm - N/A   Unknown
2:35 AM 36.3 °F - 24.6 °F 63% 30.15 in 10.0 mi Calm Calm - N/A   Unknown
2:55 AM 37.4 °F 33.8 °F 19.2 °F 48% 30.15 in 10.0 mi East 4.6 mph - N/A   Unknown
3:15 AM 37.9 °F 34.4 °F 16.7 °F 42% 30.16 in 10.0 mi East 4.6 mph - N/A   Unknown
3:35 AM 37.6 °F 34.0 °F 16.7 °F 43% 30.15 in 10.0 mi East 4.6 mph - N/A   Unknown
3:55 AM 37.4 °F 32.1 °F 17.1 °F 44% 30.15 in 10.0 mi East 6.9 mph - N/A   Unknown
4:15 AM 36.7 °F 32.0 °F 18.5 °F 48% 30.16 in 10.0 mi East 5.8 mph - N/A Rain Light Rain
4:35 AM 35.6 °F 29.9 °F 19.9 °F 53% 30.17 in 10.0 mi East 6.9 mph - N/A Rain Light Rain
4:55 AM 34.3 °F 28.4 °F 22.3 °F 61% 30.19 in 10.0 mi ESE 6.9 mph - N/A   Unknown
5:15 AM 33.1 °F 28.7 °F 25.7 °F 74% 30.19 in 7.0 mi ESE 4.6 mph - N/A   Unknown
5:35 AM 32.2 °F 27.7 °F 27.1 °F 82% 30.19 in 5.0 mi East 4.6 mph - 0.01 in   Unknown
5:55 AM 32.0 °F 28.7 °F 27.5 °F 83% 30.19 in 5.0 mi East 3.5 mph - 0.02 in   Unknown
6:15 AM 32.0 °F 28.7 °F 27.3 °F 83% 30.20 in 10.0 mi East 3.5 mph - 0.01 in   Unknown
6:35 AM 32.0 °F 25.6 °F 26.4 °F 80% 30.20 in 7.0 mi ESE 6.9 mph - 0.01 in   Unknown
6:55 AM 31.6 °F 28.3 °F 26.1 °F 80% 30.20 in 10.0 mi SE 3.5 mph - 0.01 in   Unknown
7:15 AM 31.5 °F 26.8 °F 25.7 °F 79% 30.19 in 10.0 mi ESE 4.6 mph - N/A   Unknown
7:35 AM 31.5 °F 25.8 °F 25.9 °F 80% 30.19 in 7.0 mi ESE 5.8 mph - N/A   Unknown
7:55 AM 31.1 °F 25.4 °F 26.8 °F 84% 30.19 in 5.0 mi East 5.8 mph - N/A   Unknown
8:15 AM 30.7 °F 23.3 °F 26.1 °F 83% 30.19 in 4.0 mi East 8.1 mph - 0.01 in   Unknown
8:35 AM 30.6 °F 23.8 °F 25.5 °F 82% 30.19 in 10.0 mi East 6.9 mph - 0.01 in   Unknown
8:55 AM 30.6 °F 24.7 °F 25.5 °F 82% 30.17 in 10.0 mi East 5.8 mph - 0.01 in   Unknown
9:15 AM 30.6 °F 21.2 °F 24.1 °F 77% 30.16 in 10.0 mi East 11.5 mph 17.3 mph N/A   Unknown
9:35 AM 30.6 °F 23.8 °F 24.4 °F 78% 30.15 in 10.0 mi East 6.9 mph - N/A   Unknown
9:55 AM 30.7 °F 24.1 °F 24.4 °F 77% 30.15 in 10.0 mi East 6.9 mph - N/A   Unknown
10:15 AM 30.9 °F 23.5 °F 23.9 °F 75% 30.15 in 10.0 mi East 8.1 mph - N/A   Unknown
10:35 AM 31.1 °F 23.1 °F 22.6 °F 71% 30.12 in 10.0 mi East 9.2 mph 17.3 mph N/A   Unknown
10:55 AM 31.1 °F 21.9 °F 23.0 °F 72% 30.10 in 10.0 mi East 11.5 mph - N/A   Unknown
11:15 AM 31.1 °F 23.7 °F 23.4 °F 73% 30.09 in 10.0 mi East 8.1 mph - N/A   Unknown
11:35 AM 31.1 °F 21.9 °F 23.4 °F 73% 30.09 in 10.0 mi ESE 11.5 mph 16.1 mph N/A   Unknown
11:55 AM 31.1 °F 23.7 °F 25.3 °F 79% 30.09 in 4.0 mi ESE 8.1 mph - N/A   Unknown
12:15 PM 30.9 °F 24.3 °F 25.7 °F 81% 30.08 in 3.0 mi East 6.9 mph - 0.02 in Snow Light Snow
12:35 PM 31.1 °F 23.7 °F 27.5 °F 87% 30.06 in 7.0 mi East 8.1 mph - 0.03 in   Unknown
12:55 PM 31.3 °F 21.1 °F 27.3 °F 85% 30.05 in 3.0 mi East 13.8 mph - 0.06 in Snow Light Snow
1:15 PM 31.1 °F 23.1 °F 27.9 °F 88% 30.04 in 2.5 mi East 9.2 mph - 0.04 in Snow Light Snow
1:35 PM 31.1 °F 23.7 °F 28.2 °F 89% 30.04 in 1.5 mi East 8.1 mph - 0.09 in Snow Light Snow
1:55 PM 31.1 °F 22.4 °F 28.4 °F 90% 30.02 in 1.8 mi East 10.4 mph 16.1 mph 0.12 in Snow Light Snow
2:15 PM 31.3 °F 24.7 °F 28.4 °F 89% 30.00 in 2.0 mi East 6.9 mph - 0.02 in Snow Light Snow
2:35 PM 31.5 °F 23.5 °F 28.4 °F 88% 30.02 in 2.0 mi East 9.2 mph - 0.03 in Snow Light Snow
2:55 PM 31.5 °F 23.5 °F 28.6 °F 89% 30.02 in 2.0 mi East 9.2 mph - 0.04 in Snow Light Snow
3:15 PM 31.6 °F 25.1 °F 28.9 °F 90% 30.02 in 2.5 mi East 6.9 mph - N/A   Mist
3:35 PM 31.3 °F 24.7 °F 29.3 °F 92% 30.01 in 0.8 mi East 6.9 mph - N/A Snow Light Snow
3:55 PM 31.1 °F 25.4 °F 29.8 °F 95% 30.00 in 1.0 mi ESE 5.8 mph - N/A Snow Light Snow
4:15 PM 31.3 °F 26.6 °F 30.0 °F 95% 29.98 in 1.8 mi ESE 4.6 mph - N/A Snow Light Snow
4:35 PM 31.5 °F 25.8 °F 29.8 °F 94% 29.98 in 3.0 mi East 5.8 mph - N/A Snow Light Snow
4:55 PM 31.8 °F 28.5 °F 29.7 °F 92% 29.97 in 3.0 mi ESE 3.5 mph - N/A   Unknown
5:15 PM 31.8 °F 26.2 °F 29.8 °F 92% 29.96 in 4.0 mi ESE 5.8 mph - N/A   Mist
5:35 PM 32.0 °F 27.5 °F 30.0 °F 92% 29.96 in 2.5 mi ESE 4.6 mph - N/A   Unknown
5:55 PM 32.0 °F 27.5 °F 30.2 °F 93% 29.95 in 2.0 mi ESE 4.6 mph - N/A   Unknown
6:15 PM 32.0 °F 26.4 °F 30.6 °F 94% 29.95 in 3.0 mi ESE 5.8 mph - N/A   Unknown
6:35 PM 32.0 °F 25.6 °F 30.6 °F 94% 29.95 in 2.5 mi East 6.9 mph - N/A   Unknown
6:55 PM 32.0 °F 26.4 °F 30.7 °F 95% 29.94 in 4.0 mi ESE 5.8 mph - N/A   Unknown
7:15 PM 32.2 °F 27.7 °F 30.2 °F 92% 29.93 in 7.0 mi East 4.6 mph - N/A   Unknown
7:35 PM 32.0 °F 27.5 °F 30.2 °F 93% 29.92 in 7.0 mi ESE 4.6 mph - N/A   Unknown
7:55 PM 32.0 °F 27.5 °F 30.2 °F 93% 29.91 in 10.0 mi ESE 4.6 mph - N/A   Unknown
8:15 PM 32.2 °F 27.7 °F 30.7 °F 94% 29.92 in 5.0 mi ESE 4.6 mph - N/A   Unknown
8:35 PM 32.0 °F 27.5 °F 30.7 °F 95% 29.91 in 5.0 mi ESE 4.6 mph - N/A Snow Light Snow
8:55 PM 32.0 °F 27.5 °F 30.7 °F 95% 29.91 in 5.0 mi ESE 4.6 mph - N/A Snow Light Snow
9:15 PM 32.2 °F 28.9 °F 30.7 °F 94% 29.91 in 7.0 mi SE 3.5 mph - N/A   Unknown
9:35 PM 32.4 °F 27.9 °F 30.9 °F 94% 29.91 in 10.0 mi ESE 4.6 mph - N/A   Unknown
9:55 PM 32.5 °F - 30.7 °F 93% 29.90 in 10.0 mi Calm Calm - N/A   Unknown
10:15 PM 32.9 °F 29.8 °F 30.9 °F 92% 29.90 in 10.0 mi SE 3.5 mph - N/A   Unknown
10:35 PM 32.5 °F - 30.9 °F 94% 29.89 in 10.0 mi Calm Calm - N/A   Unknown
10:55 PM 32.9 °F 29.8 °F 30.9 °F 92% 29.87 in 10.0 mi ESE 3.5 mph - N/A   Unknown
11:15 PM 33.8 °F 30.8 °F 30.2 °F 87% 29.88 in 10.0 mi ESE 3.5 mph - N/A   Unknown
11:35 PM 33.3 °F 28.9 °F 30.6 °F 90% 29.87 in 10.0 mi SSE 4.6 mph - N/A   Unknown
11:55 PM 32.9 °F - 30.9 °F 92% 29.86 in 10.0 mi Calm Calm - N/A   Unknown